Location: Anciles
(42.5833°N, 0.5167°E)
Time: 11:34:56
(UTC+00:00)

Cosmos 1190 Rocket - Pass Details

Date: 10 December 2019
Orbit: 757 x 780 km, 74.1° (Epoch: 22 January)

Event Time Altitude Azimuth Distance (km) Brightness Sun altitude
Rises 18:37:42 0° 205° (SSW) 3,207 7.7 -23.7°
Reaches altitude 10° 18:40:04 10° 207° (SSW) 2,283 6.9 -24.1°
Maximum altitude 18:45:14 70° 291° (WNW) 807 4.1 -25.1°
Enters shadow 18:47:05 40° 3° (N) 1,115 4.7 -25.4°
